Simultaneous Nadir Overpasses (SNOs) Predictions

Prediction of SNOs between NOAA-20 and METOP-B Satellite Orbit:

Table of predicted SNOs for the next 14.0 days since TLE Epoch: 7/24/2021
Index Date (NOAA-20) Time (NOAA-20) Lat,Lon (NOAA-20) SZA (NOAA-20 ) Date (METOP-B) Time (METOP-B) Lat,Lon (METOP-B) SZA (METOP-B ) Distance(km) Time Diff (sec)
1 07/24/2021 03:10:41 72.72, 124.10 53.09 07/24/2021 03:11:45 72.70, 124.04 53.06 2.85 64
2 07/24/2021 04:01:25 -72.73, -68.59 126.90 07/24/2021 04:02:26 -72.74, -68.55 126.90 2.19 61
3 07/24/2021 04:52:11 72.72, 98.72 53.11 07/24/2021 04:53:06 72.73, 98.76 53.11 1.73 55
4 07/24/2021 05:42:55 -72.73, -93.98 126.88 07/24/2021 05:43:48 -72.72, -93.94 126.90 1.73 53
5 07/24/2021 06:33:41 72.73, 73.33 53.13 07/24/2021 06:34:28 72.71, 73.38 53.10 2.37 47
6 07/24/2021 07:24:24 -72.68,-119.26 126.91 07/24/2021 07:25:10 -72.70,-119.32 126.90 2.65 46
7 07/24/2021 08:15:10 72.68, 48.05 53.10 07/24/2021 08:15:50 72.69, 48.00 53.10 2.08 40
8 07/24/2021 09:05:54 -72.69,-144.64 126.89 07/24/2021 09:06:32 -72.68,-144.70 126.91 2.07 38
9 07/24/2021 09:56:40 72.69, 22.67 53.12 07/24/2021 09:57:12 72.67, 22.62 53.10 2.47 32
10 07/24/2021 10:47:24 -72.69,-170.03 126.87 07/24/2021 10:47:53 -72.71,-169.98 126.87 2.55 29
11 07/24/2021 11:38:10 72.69, -2.72 53.14 07/24/2021 11:38:33 72.70, -2.66 53.14 2.16 23
12 07/24/2021 12:28:54 -72.70, 164.59 126.85 07/24/2021 12:29:15 -72.69, 164.64 126.87 2.10 21
13 07/24/2021 13:19:40 72.70, -28.10 53.16 07/24/2021 13:19:55 72.68, -28.04 53.14 2.68 15
14 07/24/2021 14:10:23 -72.65, 139.31 126.89 07/24/2021 14:10:37 -72.67, 139.26 126.87 2.37 14
15 07/24/2021 15:01:09 72.65, -53.38 53.12 07/24/2021 15:01:17 72.66, -53.42 53.13 1.70 8
16 07/24/2021 15:51:53 -72.66, 113.92 126.87 07/24/2021 15:51:59 -72.65, 113.88 126.87 1.62 6
17 07/24/2021 16:42:39 72.66, -78.77 53.14 07/24/2021 16:42:39 72.64, -78.80 53.13 2.13 0
18 07/24/2021 17:33:23 -72.66, 88.54 126.84 07/24/2021 17:33:20 -72.68, 88.60 126.83 2.95 3
19 07/24/2021 18:24:09 72.66,-104.15 53.17 07/24/2021 18:24:00 72.67,-104.08 53.17 2.61 9
20 07/24/2021 19:14:53 -72.67, 63.15 126.82 07/24/2021 19:14:42 -72.66, 63.22 126.83 2.53 11
21 07/24/2021 20:05:39 72.67,-129.54 53.19 07/24/2021 20:05:22 72.65,-129.46 53.17 3.05 17
22 07/24/2021 20:56:22 -72.62, 37.87 126.86 07/24/2021 20:56:04 -72.64, 37.84 126.84 2.16 18
23 07/24/2021 21:47:08 72.62,-154.82 53.15 07/24/2021 21:46:44 72.63,-154.84 53.17 1.37 24
24 07/24/2021 22:37:52 -72.63, 12.49 126.84 07/24/2021 22:37:26 -72.62, 12.46 126.84 1.19 26
25 07/24/2021 23:28:38 72.63, 179.80 53.17 07/24/2021 23:28:06 72.61, 179.78 53.17 1.87 32
26 07/25/2021 00:19:22 -72.63, -12.90 126.82 07/25/2021 00:18:47 -72.65, -12.82 126.80 3.38 35
27 07/25/2021 01:10:08 72.63, 154.41 53.19 07/25/2021 01:09:27 72.64, 154.50 53.21 3.09 41
28 07/25/2021 02:00:51 -72.64, -38.28 126.80 07/25/2021 02:00:08 -72.63, -38.20 126.80 2.99 43
29 07/25/2021 02:51:37 72.64, 129.03 53.21 07/25/2021 02:50:48 72.62, 129.12 53.20 3.46 49
30 07/25/2021 03:42:20 -72.59, -63.57 126.83 07/25/2021 03:41:30 -72.61, -63.58 126.80 2.04 50
31 07/25/2021 04:33:06 72.59, 103.75 53.18 07/25/2021 04:32:10 72.60, 103.74 53.20 1.16 56
32 07/25/2021 05:23:50 -72.60, -88.95 126.81 07/25/2021 05:22:52 -72.59, -88.96 126.80 0.86 58
33 07/25/2021 06:14:36 72.60, 78.36 53.20 07/25/2021 06:13:32 72.58, 78.36 53.20 1.71 64
34 07/25/2021 07:05:20 -72.60,-114.34 126.79 07/25/2021 07:04:14 -72.57,-114.34 126.81 3.62 66
35 07/25/2021 07:56:06 72.60, 52.98 53.22 07/25/2021 07:54:53 72.61, 53.08 53.24 3.58 73
36 07/25/2021 08:46:50 -72.61,-139.72 126.77 07/25/2021 08:45:35 -72.60,-139.62 126.76 3.48 75
37 07/25/2021 09:37:32 72.40, 28.00 53.02 07/25/2021 09:36:19 72.39, 27.29 53.06 24.07 73
38 07/25/2021 10:28:14 -72.31,-164.50 127.08 07/25/2021 10:27:02 -72.33,-165.51 126.99 34.25 72
39 07/25/2021 11:18:56 72.10, 3.22 52.70 07/25/2021 11:17:46 72.11, 1.41 52.84 61.76 70
40 07/25/2021 12:09:38 -72.01, 170.71 127.40 07/25/2021 12:08:30 -72.00, 168.52 127.25 75.23 68



Historial Predications of SNOs between NOAA-20 and METOP-B
